Wind_Speed
32 32 33 32 31 32 33 32 30 27 26 27 27 26 28 26 21 20 21 20 22 21 21 20 18 21 23
32 32 33 34 33 33 32 29 30 27 25 31 31 30 25 23 21 19 21 21 21 19 19 19 19 21 23
33 33 34 34 33 33 32 30 29 28 28 27 26 26 23 22 21 18 18 20 19 17 17 16 18 21 23
34 35 35 35 35 34 32 30 29 28 26 25 25 24 22 21 18 17 17 18 18 17 16 17 18 19 22
33 33 34 34 33 32 29 28 27 24 24 23 23 21 19 18 17 15 16 17 16 16 16 18 19 20 23
32 32 29 29 28 27 26 24 24 21 21 18 17 15 15 15 16 14 15 16 16 17 18 20 21 21 22
27 28 26 26 23 22 21 21 21 15 16 13 13 12 13 13 14 15 15 16 16 17 19 20 21 22 23
26 26 23 23 19 18 17 16 14 13 12 11 12 11 13 13 13 15 15 15 15 15 17 18 19 20 21
26 25 21 16 15 14 14 14 13 13 12 11 11 12 12 11 11 12 13 12 14 17 16 17 17 18 19
23 21 18 17 14 14 13 13 12 13 12 12 11 11 12 11 9 8 9 11 15 15 15 16 17 17 18
20 18 16 14 14 14 14 14 14 14 13 12 13 11 10 10 11 14 19 18 15 14 14 16 18 18 19
20 17 16 15 15 15 16 15 14 14 13 13 13 11 15 18 19 21 20 17 15 16 19 22 21 21 21
21 19 18 18 17 17 16 16 15 15 16 16 14 17 17 18 19 19 18 17 18 19 20 20 21 22 23
24 22 20 20 18 18 18 17 18 18 19 19 22 19 18 17 18 18 16 16 18 19 19 20 21 21 22
26 22 22 22 22 21 21 20 20 21 22 22 22 23 23 22 21 21 20 19 19 20 20 21 22 23 24
28 25 24 24 23 23 24 24 25 25 24 25 25 26 29 28 24 25 24 24 24 24 24 23 24 26 26
31 28 26 26 24 24 25 26 26 26 25 26 29 28 24 22 23 24 25 26 26 26 26 25 25 27 28
Wind_Direction
294 295 295 292 289 288 285 284 282 277 280 275 282 281 282 275 264 262 251 252 255 246 238 235 228 224 222
291 290 289 288 287 284 281 277 274 273 270 263 277 278 279 274 265 255 249 243 246 240 236 231 228 223 221
287 288 287 287 289 289 287 283 279 280 280 276 276 274 272 266 261 254 245 245 238 234 234 233 235 229 220
287 287 288 290 289 286 283 280 277 275 277 276 273 271 267 261 254 246 241 240 238 234 235 234 233 232 226
287 288 287 284 282 277 274 275 273 273 273 274 272 267 257 250 239 234 235 235 237 237 236 237 234 232 229
289 288 287 284 280 277 276 269 266 267 270 268 262 253 246 243 244 235 238 243 241 241 240 239 239 236 236
284 287 289 286 280 277 272 269 267 260 260 253 250 246 247 246 250 252 248 246 244 244 244 242 241 239 238
286 287 283 277 274 271 267 262 255 247 243 241 244 246 249 250 250 252 251 251 249 249 244 241 240 240 239
284 282 279 275 268 261 252 242 236 237 238 243 246 241 239 242 248 255 253 256 255 251 246 243 241 241 241
277 273 269 259 254 248 239 233 234 237 240 239 235 240 240 238 232 238 259 263 259 254 250 247 245 245 245
268 260 254 249 240 232 233 233 236 236 237 235 236 234 234 242 258 272 271 251 248 250 257 260 255 252 252
254 249 245 240 237 238 242 242 240 238 234 230 232 245 271 275 277 272 268 253 251 252 255 255 256 255 255
246 243 241 239 236 236 237 237 235 231 228 232 245 271 279 290 278 265 251 248 251 251 253 254 256 257 259
243 239 239 236 236 236 233 229 232 232 239 247 268 266 275 292 272 263 253 256 256 257 258 259 260 261 264
240 234 236 238 237 236 235 228 230 238 250 260 264 269 277 283 270 259 259 259 260 263 262 263 265 266 266
234 235 236 238 235 235 232 236 243 245 254 264 271 276 280 278 265 255 257 261 265 266 266 266 269 270 269
235 234 234 236 234 237 242 245 247 253 261 268 280 282 274 266 259 257 259 262 265 266 267 269 272 272 273
Height
3072 3070 3068 3068 3067 3064 3063 3061 3061 3061 3060 3061 3061 3059 3058 3057 3058 3060 3060 3061 3064 3066 3068 3069 3072 3075 3080
3065 3063 3061 3061 3058 3059 3055 3054 3053 3053 3054 3054 3055 3056 3055 3053 3053 3053 3055 3055 3058 3061 3063 3064 3067 3071 3075
3057 3055 3054 3053 3051 3050 3048 3046 3045 3044 3045 3045 3046 3049 3047 3047 3048 3048 3049 3052 3054 3056 3058 3060 3063 3067 3070
3048 3047 3045 3042 3042 3042 3041 3041 3039 3037 3038 3039 3039 3041 3042 3042 3043 3044 3046 3049 3050 3052 3053 3057 3059 3063 3066
3039 3037 3035 3034 3033 3032 3030 3033 3032 3032 3030 3032 3033 3035 3036 3036 3036 3039 3042 3045 3046 3048 3050 3053 3056 3058 3061
3032 3029 3027 3028 3027 3026 3022 3023 3025 3024 3024 3027 3028 3030 3031 3032 3034 3034 3037 3040 3042 3044 3046 3050 3052 3054 3056
3022 3021 3019 3016 3017 3018 3017 3018 3020 3018 3020 3022 3024 3026 3028 3029 3030 3032 3033 3035 3038 3040 3042 3045 3047 3049 3051
3015 3010 3013 3012 3011 3012 3011 3013 3015 3015 3017 3019 3021 3023 3024 3026 3027 3029 3030 3032 3034 3036 3038 3040 3041 3044 3046
3008 3006 3004 3005 3005 3006 3007 3009 3011 3012 3013 3015 3017 3019 3021 3022 3023 3026 3027 3028 3030 3033 3034 3036 3037 3039 3041
3003 2999 3001 3002 3001 3003 3005 3006 3007 3009 3010 3013 3014 3015 3017 3018 3019 3022 3024 3025 3027 3028 3030 3031 3033 3035 3037
2996 2996 2996 2997 2998 3000 3002 3002 3004 3006 3007 3009 3011 3012 3015 3016 3017 3018 3020 3021 3022 3023 3025 3027 3029 3031 3032
2992 2991 2992 2994 2995 2996 2998 2999 3000 3003 3005 3006 3008 3010 3011 3011 3013 3013 3014 3015 3017 3019 3021 3023 3024 3026 3027
2986 2986 2988 2990 2990 2992 2994 2995 2997 3000 3002 3003 3004 3005 3006 3006 3006 3007 3008 3010 3012 3014 3015 3017 3018 3020 3021
2979 2980 2983 2985 2986 2988 2990 2991 2993 2995 2997 2998 3000 3000 3001 3001 3002 3003 3003 3005 3006 3008 3009 3011 3012 3013 3014
2973 2974 2977 2979 2981 2983 2985 2987 2989 2990 2992 2993 2994 2994 2995 2995 2996 2997 2998 3000 3001 3002 3004 3005 3006 3007 3007
2966 2968 2971 2973 2975 2977 2979 2981 2983 2985 2986 2986 2987 2987 2988 2988 2989 2990 2992 2993 2995 2996 2997 2998 2999 2999 2999
2958 2961 2963 2967 2968 2971 2973 2975 2976 2978 2979 2979 2980 2979 2979 2980 2982 2983 2985 2986 2987 2989 2990 2991 2991 2990 2991